AAA1531 YMML-YMLT

Flight info

Callsign AAA1531
Flight time 0h 52m
Altitude 37000
Route SUNTI H169 IRSOM W105 LT
Aircraft B737/M-SDE2E3FGHIRWXY/LB1

Departure

Time 2026-04-23 13:26
Airport Melbourne Airport (YMML)

Arrival

Time 2026-04-23 14:18
Airport Launceston Airport (YMLT)
Time Latitude Longitude Altitude Speed Heading
2026-04-23 13:04 -37.67266 144.84660 385 ft 0 kts 172°
2026-04-23 13:04 -37.67268 144.84661 385 ft 0 kts 172°
2026-04-23 13:20 -37.67260 144.84659 385 ft 4 kts 171°
2026-04-23 13:20 -37.67233 144.84654 385 ft 4 kts 172°
2026-04-23 13:20 -37.67207 144.84652 386 ft 4 kts 198°
2026-04-23 13:21 -37.67194 144.84663 387 ft 3 kts 262°
2026-04-23 13:21 -37.67197 144.84642 386 ft 4 kts 261°
2026-04-23 13:21 -37.67201 144.84608 386 ft 4 kts 261°
2026-04-23 13:21 -37.67206 144.84574 385 ft 4 kts 261°
2026-04-23 13:22 -37.67207 144.84562 385 ft 1 kts 261°
2026-04-23 13:24 -37.67209 144.84547 384 ft 8 kts 261°
2026-04-23 13:24 -37.67199 144.84438 383 ft 14 kts 275°
2026-04-23 13:24 -37.67207 144.84316 381 ft 14 kts 263°
2026-04-23 13:24 -37.67217 144.84187 379 ft 16 kts 262°
2026-04-23 13:25 -37.67204 144.84039 378 ft 18 kts 301°
2026-04-23 13:25 -37.67115 144.83936 381 ft 18 kts 321°
2026-04-23 13:25 -37.66961 144.83813 386 ft 45 kts 337°
2026-04-23 13:25 -37.66430 144.83699 406 ft 107 kts 351°
2026-04-23 13:26 -37.65553 144.83543 582 ft 134 kts 352°
2026-04-23 13:26 -37.64615 144.83365 979 ft 150 kts 352°
2026-04-23 13:26 -37.63552 144.83155 1444 ft 158 kts 352°
2026-04-23 13:26 -37.62450 144.82936 2053 ft 163 kts 352°
2026-04-23 13:27 -37.61268 144.82701 2499 ft 189 kts 352°
2026-04-23 13:27 -37.59848 144.82432 2765 ft 223 kts 356°
2026-04-23 13:27 -37.58237 144.82795 3170 ft 247 kts 24°
2026-04-23 13:27 -37.56674 144.83748 4085 ft 252 kts 26°
2026-04-23 13:28 -37.55101 144.84728 5114 ft 253 kts 26°
2026-04-23 13:28 -37.53501 144.85719 6024 ft 259 kts 26°
2026-04-23 13:28 -37.51851 144.86734 6883 ft 268 kts 26°
2026-04-23 13:28 -37.50159 144.87771 7836 ft 272 kts 25°
2026-04-23 13:29 -37.48448 144.88823 8860 ft 276 kts 27°
2026-04-23 13:29 -37.46970 144.90382 9840 ft 284 kts 53°
2026-04-23 13:29 -37.46152 144.92683 10651 ft 301 kts 77°
2026-04-23 13:29 -37.46130 144.95439 10905 ft 334 kts 101°
2026-04-23 13:30 -37.47047 144.98213 11417 ft 354 kts 123°
2026-04-23 13:30 -37.48750 145.00469 12350 ft 358 kts 144°
2026-04-23 13:30 -37.50988 145.01801 13399 ft 359 kts 167°
2026-04-23 13:30 -37.53468 145.02075 14408 ft 360 kts 180°
2026-04-23 13:31 -37.55995 145.01950 15232 ft 366 kts 183°
2026-04-23 13:31 -37.58553 145.01763 16147 ft 370 kts 183°
2026-04-23 13:31 -37.61099 145.01627 17083 ft 372 kts 182°
2026-04-23 13:31 -37.63711 145.01548 17939 ft 379 kts 181°
2026-04-23 13:32 -37.66369 145.01517 18777 ft 384 kts 180°
2026-04-23 13:32 -37.69056 145.01505 19564 ft 387 kts 180°
2026-04-23 13:32 -37.71755 145.01496 20358 ft 390 kts 181°
2026-04-23 13:32 -37.74478 145.01293 21113 ft 394 kts 186°
2026-04-23 13:33 -37.77212 145.00881 21864 ft 398 kts 187°
2026-04-23 13:33 -37.79972 145.00408 22588 ft 402 kts 187°
2026-04-23 13:33 -37.82764 144.99937 23256 ft 407 kts 187°
2026-04-23 13:33 -37.85594 144.99482 23939 ft 412 kts 187°
2026-04-23 13:34 -37.88451 144.99044 24532 ft 415 kts 187°
2026-04-23 13:34 -37.91324 144.98613 25161 ft 417 kts 187°
2026-04-23 13:34 -37.94211 144.98183 25781 ft 419 kts 187°
2026-04-23 13:34 -37.97125 144.97882 26353 ft 422 kts 178°
2026-04-23 13:35 -38.00017 144.98541 26881 ft 426 kts 163°
2026-04-23 13:35 -38.02839 144.99763 27444 ft 429 kts 161°
2026-04-23 13:35 -38.05655 145.01059 27977 ft 432 kts 161°
2026-04-23 13:35 -38.08488 145.02377 28511 ft 434 kts 161°
2026-04-23 13:36 -38.11334 145.03690 29022 ft 437 kts 161°
2026-04-23 13:36 -38.14205 145.04997 29512 ft 440 kts 161°
2026-04-23 13:36 -38.17097 145.06299 29985 ft 442 kts 162°
2026-04-23 13:36 -38.20006 145.07601 30441 ft 445 kts 162°
2026-04-23 13:37 -38.22900 145.08892 30787 ft 448 kts 162°
2026-04-23 13:37 -38.25848 145.10208 31185 ft 449 kts 162°
2026-04-23 13:37 -38.28794 145.11524 31760 ft 446 kts 162°
2026-04-23 13:37 -38.31716 145.12831 32390 ft 442 kts 162°
2026-04-23 13:38 -38.34610 145.14128 32953 ft 439 kts 162°
2026-04-23 13:38 -38.37489 145.15418 33426 ft 438 kts 162°
2026-04-23 13:38 -38.40369 145.16710 33883 ft 438 kts 162°
2026-04-23 13:38 -38.43235 145.17997 34372 ft 436 kts 162°
2026-04-23 13:39 -38.46090 145.19280 34759 ft 435 kts 162°
2026-04-23 13:39 -38.48947 145.20564 35112 ft 435 kts 162°
2026-04-23 13:39 -38.51761 145.21828 35487 ft 434 kts 162°
2026-04-23 13:39 -38.54606 145.23088 35903 ft 431 kts 163°
2026-04-23 13:40 -38.57440 145.24332 36291 ft 430 kts 163°
2026-04-23 13:40 -38.60267 145.25568 36635 ft 429 kts 163°
2026-04-23 13:40 -38.63097 145.26807 36995 ft 428 kts 163°
2026-04-23 13:40 -38.65905 145.28039 37378 ft 427 kts 163°
2026-04-23 13:41 -38.68733 145.29281 37370 ft 432 kts 163°
2026-04-23 13:41 -38.74420 145.31787 37374 ft 430 kts 163°
2026-04-23 13:42 -38.80025 145.34266 37380 ft 424 kts 163°
2026-04-23 13:42 -38.85611 145.36738 37385 ft 424 kts 163°
2026-04-23 13:43 -38.91192 145.39212 37386 ft 424 kts 163°
2026-04-23 13:43 -38.96772 145.41690 37388 ft 425 kts 163°
2026-04-23 13:44 -39.02367 145.44178 37389 ft 425 kts 163°
2026-04-23 13:44 -39.07932 145.46658 37389 ft 426 kts 163°
2026-04-23 13:45 -39.12634 145.48756 37391 ft 427 kts 163°
2026-04-23 13:45 -39.19183 145.51684 37390 ft 429 kts 163°
2026-04-23 13:46 -39.24822 145.54209 37393 ft 429 kts 163°
2026-04-23 13:46 -39.30473 145.56744 37386 ft 430 kts 163°
2026-04-23 13:47 -39.36130 145.59287 37388 ft 430 kts 163°
2026-04-23 13:47 -39.41783 145.61832 37387 ft 430 kts 163°
2026-04-23 13:48 -39.47398 145.64364 37388 ft 429 kts 163°
2026-04-23 13:48 -39.53046 145.66915 37387 ft 429 kts 163°
2026-04-23 13:49 -39.58685 145.69467 37388 ft 429 kts 163°
2026-04-23 13:49 -39.64327 145.72024 37405 ft 429 kts 163°
2026-04-23 13:50 -39.69962 145.74583 37386 ft 429 kts 163°
2026-04-23 13:50 -39.75591 145.77143 37388 ft 428 kts 163°
2026-04-23 13:51 -39.81216 145.79706 37383 ft 428 kts 163°
2026-04-23 13:51 -39.86836 145.82272 37399 ft 428 kts 163°
2026-04-23 13:52 -39.92421 145.84826 37389 ft 428 kts 163°
2026-04-23 13:52 -39.97130 145.86982 37391 ft 428 kts 163°
2026-04-23 13:53 -40.03663 145.89987 37386 ft 429 kts 163°
2026-04-23 13:53 -40.08337 145.92154 37406 ft 429 kts 163°
2026-04-23 13:54 -40.13967 145.94771 37394 ft 429 kts 162°
2026-04-23 13:54 -40.19600 145.97393 37391 ft 429 kts 162°
2026-04-23 13:55 -40.25237 146.00019 37392 ft 430 kts 163°
2026-04-23 13:55 -40.30878 146.02652 37400 ft 431 kts 163°
2026-04-23 13:56 -40.36533 146.05297 37397 ft 431 kts 163°
2026-04-23 13:56 -40.42154 146.07930 37407 ft 432 kts 163°
2026-04-23 13:57 -40.47822 146.10590 37394 ft 433 kts 163°
2026-04-23 13:57 -40.53507 146.13263 37404 ft 434 kts 163°
2026-04-23 13:58 -40.59200 146.15945 37403 ft 434 kts 163°
2026-04-23 13:58 -40.62057 146.17293 36802 ft 435 kts 163°
2026-04-23 13:58 -40.64897 146.18634 36167 ft 433 kts 163°
2026-04-23 13:58 -40.67732 146.19974 35390 ft 434 kts 163°
2026-04-23 13:59 -40.70553 146.21306 34592 ft 436 kts 163°
2026-04-23 13:59 -40.73440 146.22669 33452 ft 444 kts 163°
2026-04-23 13:59 -40.76355 146.24045 32521 ft 446 kts 163°
2026-04-23 13:59 -40.79285 146.25431 31629 ft 448 kts 162°
2026-04-23 14:00 -40.81220 146.26348 31227 ft 444 kts 162°
2026-04-23 14:00 -40.85099 146.28188 30310 ft 441 kts 162°
2026-04-23 14:00 -40.87972 146.29553 29544 ft 438 kts 162°
2026-04-23 14:00 -40.90829 146.30910 28851 ft 433 kts 162°
2026-04-23 14:01 -40.93647 146.32251 28164 ft 428 kts 162°
2026-04-23 14:01 -40.96433 146.33576 27487 ft 424 kts 162°
2026-04-23 14:01 -40.99200 146.34894 26811 ft 420 kts 162°
2026-04-23 14:01 -41.01942 146.36201 26153 ft 418 kts 162°
2026-04-23 14:02 -41.04640 146.37488 25499 ft 418 kts 162°
2026-04-23 14:02 -41.07375 146.38793 24810 ft 418 kts 162°
2026-04-23 14:02 -41.10103 146.40097 24130 ft 416 kts 162°
2026-04-23 14:02 -41.12816 146.41394 23356 ft 413 kts 161°
2026-04-23 14:03 -41.15411 146.43002 22637 ft 412 kts 149°
2026-04-23 14:03 -41.17659 146.45334 21973 ft 409 kts 137°
2026-04-23 14:03 -41.19474 146.48211 21312 ft 406 kts 124°
2026-04-23 14:03 -41.21008 146.51339 20684 ft 402 kts 123°
2026-04-23 14:04 -41.22489 146.54468 20049 ft 398 kts 122°
2026-04-23 14:04 -41.23953 146.57580 19413 ft 395 kts 122°
2026-04-23 14:04 -41.25411 146.60661 18766 ft 392 kts 123°
2026-04-23 14:04 -41.26862 146.63709 18053 ft 389 kts 123°
2026-04-23 14:05 -41.28310 146.66730 17388 ft 385 kts 123°
2026-04-23 14:05 -41.29745 146.69717 16746 ft 381 kts 123°
2026-04-23 14:05 -41.31168 146.72673 16115 ft 378 kts 123°
2026-04-23 14:05 -41.32580 146.75608 15492 ft 375 kts 123°
2026-04-23 14:06 -41.33981 146.78521 14876 ft 372 kts 123°
2026-04-23 14:06 -41.35358 146.81385 14235 ft 371 kts 123°
2026-04-23 14:06 -41.36742 146.84270 13552 ft 369 kts 123°
2026-04-23 14:06 -41.38120 146.87143 12901 ft 367 kts 123°
2026-04-23 14:07 -41.39488 146.89998 12266 ft 364 kts 123°
2026-04-23 14:07 -41.42192 146.95649 11004 ft 360 kts 123°
2026-04-23 14:07 -41.43518 146.98425 10582 ft 349 kts 123°
2026-04-23 14:08 -41.44785 147.01081 10271 ft 329 kts 123°
2026-04-23 14:08 -41.45976 147.03579 10068 ft 308 kts 123°
2026-04-23 14:08 -41.47104 147.05946 9788 ft 301 kts 123°
2026-04-23 14:08 -41.48222 147.08293 9396 ft 299 kts 123°
2026-04-23 14:09 -41.49335 147.10631 9005 ft 298 kts 123°
2026-04-23 14:09 -41.50445 147.12963 8625 ft 296 kts 123°
2026-04-23 14:09 -41.51531 147.15248 8238 ft 295 kts 123°
2026-04-23 14:09 -41.52625 147.17554 7852 ft 294 kts 123°
2026-04-23 14:10 -41.53720 147.19860 7459 ft 293 kts 123°
2026-04-23 14:10 -41.55057 147.21885 7099 ft 289 kts 148°
2026-04-23 14:10 -41.56725 147.23294 6839 ft 283 kts 152°
2026-04-23 14:10 -41.58415 147.24657 6589 ft 284 kts 152°
2026-04-23 14:11 -41.60103 147.26025 6378 ft 285 kts 152°
2026-04-23 14:11 -41.61775 147.27395 6137 ft 279 kts 151°
2026-04-23 14:11 -41.63425 147.28755 5878 ft 280 kts 152°
2026-04-23 14:11 -41.65082 147.30124 5706 ft 285 kts 151°
2026-04-23 14:12 -41.66858 147.31379 5244 ft 287 kts 168°
2026-04-23 14:12 -41.68763 147.31472 5005 ft 264 kts 198°
2026-04-23 14:12 -41.70405 147.30487 4500 ft 256 kts 224°
2026-04-23 14:12 -41.71557 147.28770 4121 ft 244 kts 246°
2026-04-23 14:13 -41.72117 147.26687 3768 ft 234 kts 268°
2026-04-23 14:13 -41.72061 147.24603 3629 ft 220 kts 287°
2026-04-23 14:13 -41.71528 147.22764 3531 ft 210 kts 301°
2026-04-23 14:13 -41.70681 147.21247 3416 ft 200 kts 320°
2026-04-23 14:14 -41.69441 147.20643 3304 ft 193 kts
2026-04-23 14:14 -41.68251 147.21398 3267 ft 188 kts 27°
2026-04-23 14:14 -41.67133 147.22273 3115 ft 187 kts 22°
2026-04-23 14:14 -41.65977 147.23063 2912 ft 185 kts 21°
2026-04-23 14:15 -41.64826 147.23790 2738 ft 178 kts 20°
2026-04-23 14:15 -41.63770 147.24462 2727 ft 160 kts 20°
2026-04-23 14:15 -41.62805 147.25101 2711 ft 149 kts 23°
2026-04-23 14:15 -41.62038 147.25968 2662 ft 142 kts 50°
2026-04-23 14:16 -41.61431 147.26879 2718 ft 122 kts 20°
2026-04-23 14:16 -41.60688 147.26681 2599 ft 118 kts 316°
2026-04-23 14:16 -41.60077 147.25898 2182 ft 126 kts 329°
2026-04-23 14:16 -41.59330 147.25300 1713 ft 125 kts 327°
2026-04-23 14:17 -41.58629 147.24657 1413 ft 117 kts 328°
2026-04-23 14:17 -41.57914 147.24036 1263 ft 124 kts 327°
2026-04-23 14:17 -41.57196 147.23417 1086 ft 125 kts 327°
2026-04-23 14:17 -41.56462 147.22786 922 ft 126 kts 327°
2026-04-23 14:18 -41.55729 147.22164 803 ft 123 kts 328°
2026-04-23 14:18 -41.55023 147.21611 766 ft 115 kts 330°
2026-04-23 14:18 -41.54329 147.21102 807 ft 91 kts 332°
2026-04-23 14:18 -41.53948 147.20837 581 ft 0 kts 333°